sat.trackr.live / text

‹ back to catalog

STARLINK-37271

NORAD 68722 · 2026-081Z

PAYLOAD ACTIVE UNKNOWN

§ Identity

Operator
Country
US
Launch date
2026-04-14
Launch site
AFETR
Launch vehicle
Mass (kg)
RCS (m²)

Purposes: comms

External: N2YO · Heavens-Above · Gunter

§ Orbital elements

Epoch: 2026-05-25T04:00:03.998880Z

Period
93.35 min
Inclination
53.1599°
Eccentricity
0.0001014
Mean motion
15.42574792 rev/d
Perigee alt
437.8 km
Apogee alt
439.2 km
Semi-major
6,816.7 km
B*
-4.6168e-2
RAAN
38.7552°
Arg perigee
96.2998°
Mean anomaly
247.5808°
Rev number
601

§ Raw data

STARLINK-372711 68722U 26081Z   26145.16671295 -.01834020  00000+0 -46168-1 0  99922 68722  53.1599  38.7552 0001014  96.2998 247.5808 15.42574792  6015

JSON: /api/v1/satellites/68722 · /tle

For live sub-satellite position, see the globe view (requires WebGL).

§ Visibility from observer

Set your observer location to see the next 7 days of passes ≥ 10°. The values pass through the URL so the page stays shareable.

No JS? Fill the form by hand. The geolocation button needs JavaScript.